OneWeb SL0718

operational
NORAD ID: 56081 Int'l Des: 2023-043 Owner: ONEWEBN Country: UK Constellation: oneweb
LEOCIRCULARPOLARONEWEB_TYPE

OneWeb SL0718について

説明を読み込み中...

リアルタイム位置

3D地球を読み込み中...

次回通過

高度履歴

Altitude vs Time

uPlot chart will show altitude changes over time

軌道要素

1 56081U 23043AM 25304.03095804 -.00000159 00000-0 -45766-3 0 9993
2 56081 87.8961 304.9394 0002280 80.3187 279.8201 13.15549894126302
Epoch: Oct 31, 2025 • Age: 16 hours

現在のステータス

高度 1218.5 km
速度 7.24 km/s
衛星直下点 -40.19°S, 160.56°W
打ち上げ日 Mar 26, 2023
運用期間 2.6 years
タイプ internet

技術仕様

分類 Payload
質量 148.00 kg
乾燥質量 140.00 kg
総質量 148.00 kg
長さ 1.30 m
直径 1.00 m
スパン 5.00 m
形状 Trapezoid+2 pan
製造者 ONEWUS
バスタイプ ARROW
フェーズステータス In Orbit
所有者/国 ONEWEBN/UK

大規模コンステレーション

Loading constellations...